Regional Weather Roundup
Issued by NWS

Home | Current Version | Previous Version | Text Only | Print | Product List | Glossary Off
Versions: 1 2 3 4 5 6 7 8 9 10 11 12 13 14 15 16 17 18 19 20 21 22 23 24 25 26 27 28 29 30 31 32 33 34 35 36 37 38 39 40 41 42 43 44 45 46 47 48 49 50

000
ASUS43 KDMX 302107
RWRIA

WEATHER ROUNDUP FOR IOWA
NATIONAL WEATHER SERVICE DES MOINES IA
400 PM CDT THU JUL 30 2015

NOTE: "FAIR" INDICATES FEW OR NO CLOUDS BELOW 12,000 FEET WITH NO
SIGNIFICANT WEATHER AND/OR OBSTRUCTIONS TO VISIBILITY.

* - THESE STATIONS ARE NOT NWS STATIONS...THUS NOT UNDER NWS
QUALITY CONTROL.  THEY ALSO DO NOT REPORT WEATHER SUCH
AS PRECIPITATION OR FOG.

IAZ001>003-012>014-020>022-031>034-043>046-302200-
   NORTHWEST IOWA

CITY           SKY/WX    TMP DP  RH WIND       PRES   REMARKS
CARROLL *      SUNNY     84  66  54 W13       30.15F HX  86
CHEROKEE *     SUNNY     84  66  54 W9        30.14F HX  86
DENISON *      HAZE      84  64  51 W10       30.14F VSB 3/4 HX  86
LE MARS *      SUNNY     84  70  61 SW7G13    30.14F HX  88
ORANGE CITY *  SUNNY     84  63  48 SW8       30.14F HX  85
SHELDON *      SUNNY     84  63  48 SW7       30.13F HX  85
SIOUX CITY     SUNNY     87  67  51 W6        30.13F HX  90
SPENCER        SUNNY     87  62  43 W9        30.14S HX  87
STORM LAKE *   SUNNY     82  68  61 W9        30.16F HX  85
$$

IAZ055>058-069>071-079>083-090>094-302200-
   SOUTHWEST IOWA

CITY           SKY/WX    TMP DP  RH WIND       PRES   REMARKS
ATLANTIC *     SUNNY     84  64  51 SW8       30.16F HX  86
AUDUBON *      SUNNY     84  64  51 W3        30.17F HX  86
CLARINDA *     SUNNY     86  64  48 W10       30.18F HX  87
COUNCIL BLFS * SUNNY     88  61  40 SW12      30.17F HX  88
CRESTON *      SUNNY     84  61  45 W12       30.19F HX  84
HARLAN  *      SUNNY     84  64  51 W13       30.20F HX  86
LAMONI         SUNNY     86  62  44 W10       30.17F HX  86
RED OAK *      SUNNY     86  63  45 SW10      30.17F HX  87
SHENANDOAH *   SUNNY     86  64  48 W6        30.17F HX  87
$$

IAZ047>049-059>061-072>074-084-302200-
   CENTRAL IOWA

CITY           SKY/WX    TMP DP  RH WIND       PRES   REMARKS
AMES           SUNNY     84  65  52 W12       30.12F HX  86
ANKENY *       SUNNY     86  63  45 W13G23    30.13F HX  87
CHARITON *     SUNNY     86  61  42 W12       30.16S HX  86
DES MOINES     MOSUNNY   89  54  30 W13       30.13F HX  87
GRINNELL*      SUNNY     86  64  48 W13G21    30.13F HX  87
KNOXVILLE *    SUNNY     84  61  45 W10G17    30.13F HX  84
MARSHALLTOWN   SUNNY     85  69  58 W14       30.11F HX  89
PELLA *        SUNNY     86  68  54 W10       30.14F HX  89
PERRY *          N/A     84  64  51 W13G18    30.15F HX  86
$$

IAZ004>006-015-016-023>025-035-036-302200-
   NORTH CENTRAL IOWA

CITY           SKY/WX    TMP DP  RH WIND       PRES   REMARKS
ALGONA *       SUNNY     84  61  45 W7        30.13F HX  84
CLARION *      SUNNY     84  66  54 W9        30.12F HX  86
ESTHERVILLE    SUNNY     83  59  44 W9        30.12F HX  83
FORT DODGE *   SUNNY     84  66  54 W7        30.14F HX  86
MASON CITY     SUNNY     86  61  42 W10       30.13S HX  86
FOREST CITY *  SUNNY     81  57  44 W8        30.12F HX  81
IOWA FALLS *     N/A     84  64  51 W9        30.14F HX  86
$$

IAZ007>011-017>019-026>030-037>042-050>054-066-302200-
   NORTHEAST IOWA

CITY           SKY/WX    TMP DP  RH WIND       PRES   REMARKS
CEDAR RAPIDS   SUNNY     84  69  60 W10       30.09F HX  88
CHARLES CITY * SUNNY     82  63  51 NW10G17   30.11S HX  83
CLINTON *      SUNNY     84  66  54 W10       30.10F HX  86
DECORAH *      SUNNY     82  55  39 NW13G22   30.08S HX  82
DUBUQUE        SUNNY     85  61  44 W16       30.08F HX  85
MONTICELLO *   SUNNY     84  63  48 W13       30.08F HX  85
OELWEIN *      SUNNY     84  64  51 W8G20     30.10F HX  86
WATERLOO       SUNNY     85  64  49 NW10      30.09S HX  86
$$

IAZ064-065-067-068-078-302200-
   EAST CENTRAL IOWA

CITY           SKY/WX    TMP DP  RH WIND       PRES   REMARKS
DAVENPORT      SUNNY     85  64  49 W12G18    30.09F HX  86
IOWA CITY      SUNNY     86  64  47 W15G23    30.10F HX  87
MT. PLEASANT * SUNNY     88  54  31 W9G17     30.12F HX  86
MUSCATINE *    SUNNY     88  63  42 W16       30.09F HX  88
QUAD CITIES    SUNNY     89  61  38 W12       30.08F HX  89
$$

IAZ062-063-075>077-085>089-095>099-302200-
   SOUTHEAST IOWA

CITY           SKY/WX    TMP DP  RH WIND       PRES   REMARKS
BURLINGTON     SUNNY     87  64  46 W12G18    30.11F HX  88
FAIRFIELD *    SUNNY     84  63  48 NW13G22   30.13S HX  85
FORT MADISON * SUNNY     84  64  51 NW10      30.13F HX  86
KEOKUK *       SUNNY     88  63  42 W15       30.12F HX  88
OSKALOOSA *      N/A     84  64  51 W13G18    30.13F HX  86
CENTERVILLE *  SUNNY     84  66  54 W10       30.17F HX  86
OTTUMWA        SUNNY     85  65  51 W12G17    30.12S HX  86
WASHINGTON *   SUNNY     86  68  54 W15       30.12F HX  89
$$

ABBREVIATIONS USED IN REMARKS
   TC - TEMPERATURES IN CELSIUS
  WCI - WIND CHILL INDEX
   HX - HEAT INDEX
  VSB - VISIBILITY
$$




USA.gov is the U.S. government's official web portal to all federal, state and local government web resources and services.